When you browse on this site, cookies collect data to enhance your experience and personalize the content and advertising you see.
Visit our Privacy Policy to learn more. By continuing to use the site, you agree to this use of cookies and data.
  • In France
  • List of Countries
  • For 7 days
  • Water Temperature
  • Satellite Maps
  • Weather Map
  • Weather Widgets
  • user-avatar
    Login

    Hourly Weather Ischgl

    Today, 22 April, Monday

    Time Temperature Precipitation Wind Pressure Humidity
    00:00 -5°C° 0 mm 3 mps 571 mmHg 82%
    01:00 -5°C° 0 mm 3 mps 571 mmHg 84%
    02:00 -5°C° 0 mm 3 mps 570 mmHg 84%
    03:00 -5°C° 0 mm 3 mps 570 mmHg 83%
    04:00 -5°C° 0 mm 3 mps 570 mmHg 83%
    05:00 -4°C° 0 mm 3 mps 570 mmHg 80%
    06:00 -2°C° 0 mm 3 mps 570 mmHg 76%
    07:00 -1°C° 0 mm 3 mps 570 mmHg 73%
    08:00 0°C° 0 mm 3 mps 571 mmHg 68%
    09:00 +2°C° 0 mm 3 mps 571 mmHg 64%
    10:00 +4°C° 0 mm 3 mps 572 mmHg 59%
    11:00 +5°C° 0 mm 3 mps 571 mmHg 57%
    12:00 +7°C° 0 mm 3 mps 571 mmHg 55%
    13:00 +7°C° 0 mm 3 mps 571 mmHg 53%
    14:00 +7°C° 0 mm 3 mps 571 mmHg 53%
    15:00 +7°C° 0 mm 3 mps 570 mmHg 54%
    16:00 +8°C° 0 mm 3 mps 570 mmHg 54%
    17:00 +5°C° 0 mm 3 mps 569 mmHg 61%
    18:00 +3°C° 0 mm 3 mps 567 mmHg 68%
    19:00 +1°C° 0 mm 3 mps 566 mmHg 74%
    20:00 0°C° 0 mm 3 mps 566 mmHg 78%
    21:00 -1°C° 0 mm 3 mps 565 mmHg 81%
    22:00 -2°C° 0 mm 3 mps 565 mmHg 84%
    23:00 -2°C° 0 mm 3 mps 565 mmHg 86%

    Tomorrow, 23 April, Tuesday

    Time Temperature Precipitation Wind Pressure Humidity
    00:00 -2°C° 0 mm 3 mps 565 mmHg 88%
    01:00 -2°C° 0 mm 3 mps 564 mmHg 90%
    02:00 -2°C° 0 mm 3 mps 564 mmHg 88%
    03:00 -2°C° 0 mm 3 mps 564 mmHg 87%
    04:00 -2°C° 0 mm 3 mps 563 mmHg 86%
    05:00 -2°C° 0 mm 3 mps 563 mmHg 83%
    06:00 -1°C° 0 mm 3 mps 563 mmHg 81%
    07:00 -1°C° 0 mm 3 mps 564 mmHg 79%
    08:00 +1°C° 0 mm 3 mps 564 mmHg 74%
    09:00 +2°C° 0 mm 3 mps 565 mmHg 70%
    10:00 +3°C° 0 mm 3 mps 565 mmHg 66%
    11:00 +4°C° 0.1 mm 3 mps 566 mmHg 64%
    12:00 +4°C° 0.1 mm 3 mps 566 mmHg 63%
    13:00 +5°C° 0.1 mm 3 mps 566 mmHg 62%
    14:00 +5°C° 0.1 mm 3 mps 566 mmHg 62%
    15:00 +5°C° 0.1 mm 3 mps 566 mmHg 62%
    16:00 +5°C° 0.1 mm 3 mps 566 mmHg 61%
    17:00 +4°C° 0.2 mm 3 mps 566 mmHg 68%
    18:00 +3°C° 0.2 mm 3 mps 565 mmHg 75%
    19:00 +2°C° 0.2 mm 2 mps 565 mmHg 82%
    20:00 +1°C° 0.1 mm 3 mps 565 mmHg 84%
    21:00 0°C° 0.1 mm 3 mps 565 mmHg 87%
    22:00 -1°C° 0.1 mm 3 mps 565 mmHg 89%
    23:00 -1°C° 0 mm 3 mps 565 mmHg 89%

    Day after tomorrow, 24 April, Wednesday

    Time Temperature Precipitation Wind Pressure Humidity
    00:00 -2°C° 0 mm 3 mps 565 mmHg 90%
    01:00 -2°C° 0 mm 3 mps 565 mmHg 90%
    02:00 -2°C° 0 mm 3 mps 566 mmHg 89%
    03:00 -2°C° 0 mm 3 mps 566 mmHg 88%
    04:00 -1°C° 0 mm 3 mps 567 mmHg 88%
    05:00 -1°C° 0.1 mm 3 mps 567 mmHg 86%
    06:00 0°C° 0.1 mm 3 mps 568 mmHg 84%
    07:00 +1°C° 0.1 mm 3 mps 569 mmHg 83%
    08:00 +1°C° 0 mm 4 mps 570 mmHg 77%
    09:00 +3°C° 0 mm 4 mps 571 mmHg 71%
    10:00 +5°C° 0 mm 4 mps 571 mmHg 65%
    11:00 +5°C° 0 mm 4 mps 572 mmHg 63%
    12:00 +6°C° 0 mm 4 mps 572 mmHg 60%
    13:00 +6°C° 0 mm 5 mps 573 mmHg 57%
    14:00 +6°C° 0 mm 4 mps 572 mmHg 58%
    15:00 +6°C° 0 mm 4 mps 572 mmHg 59%
    16:00 +5°C° 0 mm 4 mps 572 mmHg 60%
    17:00 +4°C° 0 mm 4 mps 571 mmHg 67%
    18:00 +3°C° 0 mm 4 mps 571 mmHg 73%
    19:00 +1°C° 0 mm 4 mps 570 mmHg 79%
    20:00 0°C° 0 mm 4 mps 570 mmHg 83%
    21:00 0°C° 0 mm 4 mps 570 mmHg 86%
    22:00 -1°C° 0 mm 4 mps 570 mmHg 89%
    23:00 -1°C° 0 mm 4 mps 570 mmHg 90%

    25 April, Thursday

    Time Temperature Precipitation Wind Pressure Humidity
    00:00 -1°C° 0 mm 4 mps 570 mmHg 90%
    01:00 -1°C° 0 mm 4 mps 570 mmHg 91%
    02:00 -1°C° 0.1 mm 4 mps 570 mmHg 91%
    03:00 0°C° 0.1 mm 3 mps 570 mmHg 91%
    04:00 0°C° 0.1 mm 3 mps 571 mmHg 92%
    05:00 0°C° 0.3 mm 3 mps 571 mmHg 89%
    06:00 0°C° 0.3 mm 4 mps 572 mmHg 87%
    07:00 +1°C° 0.3 mm 4 mps 572 mmHg 84%
    08:00 +3°C° 0 mm 4 mps 573 mmHg 75%
    09:00 +4°C° 0 mm 4 mps 573 mmHg 66%
    10:00 +5°C° 0 mm 5 mps 574 mmHg 57%
    11:00 +6°C° 0 mm 5 mps 574 mmHg 54%
    12:00 +7°C° 0 mm 5 mps 574 mmHg 50%
    13:00 +7°C° 0 mm 5 mps 575 mmHg 46%
    14:00 +7°C° 0 mm 4 mps 574 mmHg 46%
    15:00 +7°C° 0 mm 4 mps 574 mmHg 46%
    16:00 +7°C° 0 mm 4 mps 574 mmHg 46%
    17:00 +6°C° 0 mm 4 mps 573 mmHg 53%
    18:00 +4°C° 0 mm 4 mps 572 mmHg 61%
    19:00 +3°C° 0 mm 3 mps 572 mmHg 69%
    20:00 +2°C° 0 mm 3 mps 571 mmHg 74%
    21:00 +1°C° 0 mm 3 mps 571 mmHg 80%
    22:00 0°C° 0 mm 3 mps 571 mmHg 86%
    23:00 0°C° 0 mm 3 mps 571 mmHg 88%

    26 April, Friday

    Time Temperature Precipitation Wind Pressure Humidity
    00:00 -1°C° 0 mm 3 mps 571 mmHg 89%
    01:00 -1°C° 0 mm 3 mps 571 mmHg 90%
    02:00 -1°C° 0 mm 3 mps 570 mmHg 90%
    03:00 -2°C° 0 mm 3 mps 570 mmHg 89%
    04:00 -2°C° 0 mm 3 mps 570 mmHg 89%
    05:00 -1°C° 0 mm 3 mps 570 mmHg 84%
    06:00 -1°C° 0 mm 3 mps 571 mmHg 78%
    07:00 +1°C° 0 mm 2 mps 571 mmHg 73%
    08:00 +1°C° 0.8 mm 2 mps 572 mmHg 76%
    09:00 +1°C° 0.8 mm 2 mps 572 mmHg 79%
    10:00 -1°C° 0.8 mm 2 mps 572 mmHg 81%
    11:00 -2°C° 2 mm 3 mps 572 mmHg 85%
    12:00 -4°C° 2 mm 3 mps 571 mmHg 89%
    13:00 -5°C° 2 mm 4 mps 571 mmHg 94%
    14:00 -7°C° 1 mm 4 mps 571 mmHg 93%
    15:00 -6°C° 1 mm 3 mps 571 mmHg 92%
    16:00 -6°C° 1 mm 3 mps 571 mmHg 90%
    17:00 -6°C° 0.7 mm 3 mps 571 mmHg 92%
    18:00 -7°C° 0.7 mm 3 mps 571 mmHg 93%
    19:00 -7°C° 0.7 mm 3 mps 572 mmHg 94%
    20:00 -7°C° 0.6 mm 3 mps 572 mmHg 95%
    21:00 -7°C° 0.6 mm 3 mps 572 mmHg 95%
    22:00 -7°C° 0.6 mm 3 mps 573 mmHg 95%
    23:00 -6°C° 0.4 mm 2 mps 573 mmHg 95%

    27 April, Saturday

    Time Temperature Precipitation Wind Pressure Humidity
    00:00 -6°C° 0.4 mm 2 mps 573 mmHg 95%
    01:00 -6°C° 0.4 mm 2 mps 573 mmHg 95%
    02:00 -6°C° 0.2 mm 2 mps 573 mmHg 95%
    03:00 -6°C° 0.2 mm 2 mps 574 mmHg 96%
    04:00 -6°C° 0.2 mm 2 mps 574 mmHg 96%
    05:00 -6°C° 0.2 mm 2 mps 574 mmHg 94%
    06:00 -6°C° 0.2 mm 2 mps 575 mmHg 93%
    07:00 -5°C° 0.2 mm 2 mps 575 mmHg 92%
    08:00 -5°C° 0.1 mm 2 mps 575 mmHg 91%
    09:00 -5°C° 0.1 mm 3 mps 575 mmHg 90%
    10:00 -4°C° 0.1 mm 3 mps 576 mmHg 88%
    11:00 -3°C° 0 mm 2 mps 576 mmHg 88%
    12:00 -3°C° 0 mm 2 mps 576 mmHg 87%
    13:00 -2°C° 0 mm 2 mps 576 mmHg 86%
    14:00 -2°C° 0 mm 2 mps 576 mmHg 86%
    15:00 -1°C° 0 mm 2 mps 576 mmHg 85%
    16:00 -1°C° 0 mm 2 mps 576 mmHg 84%
    17:00 -2°C° 0 mm 2 mps 576 mmHg 86%
    18:00 -3°C° 0 mm 2 mps 575 mmHg 88%
    19:00 -2°C° 0 mm 1 mps 575 mmHg 90%
    20:00 -3°C° 0 mm 1 mps 575 mmHg 91%
    21:00 -4°C° 0 mm 1 mps 575 mmHg 91%
    22:00 -6°C° 0 mm 1 mps 575 mmHg 92%
    23:00 -4°C° 0 mm 1 mps 576 mmHg 89%
    Show more